Find Starlink 4718

NORAD ID: 53773 Int'l Des: 2022-111 Owner: SPXS Country: US Constellation: starlink operational
LEOCIRCULAR

当前视图

正在加载3D地球...

About Starlink 4718

Starlink 4718 (NORAD 53773) is a starlink constellation satellite (v1.5) launched Sep 11, 2022 by SPXS of US. It operates in LEO, CIRCULAR orbit with a mass of 305.00 kg.

关于 Starlink 4718

正在加载描述...

即将过境

Passes for default location (London). Set your location on the main map for personalized predictions.

高度历史

Loading altitude history...

两行轨道根数

1 53773U 22111A 26166.83600120 .00000770 00000-0 66470-4 0 9994
2 53773 53.1591 203.3586 0001033 83.1801 276.9308 15.08835189208661
Epoch: Jun 15, 2026 • Age: 21 hours

当前状态

高度 548.9 km
速度 7.59 km/s
星下点 -29.00°S, 21.66°E
发射日期 Sep 11, 2022
运行时间 3.7 years
类型 internet

技术详情

分类 Payload
质量 305.00 kg
干质量 290.00 kg
总质量 305.00 kg
长度 0.20 m
直径 2.80 m
跨度 9.00 m
形状 Box + pan
制造商 SPXS
平台类型 Starlink
阶段状态 In Orbit
所有者/国家 SPXS/US

Most Searched